Location: Bienfait
(49.1431°N, 102.8077°W)
Time: 06:53:41
(UTC+00:00)

Envisat - Pass Details

Date: 03 February 2022
Orbit: 764 x 765 km, 98.2° (Epoch: 16 May)

Event Time Altitude Azimuth Distance (km) Brightness Sun altitude
Rises 12:39:21 0° 8° (N) 3,244 6.3 -16.5°
Reaches altitude 10° 12:41:46 10° 1° (N) 2,314 5.4 -16.1°
Maximum altitude 12:46:30 40° 294° (WNW) 1,122 3.4 -15.3°
Drops below altitude 10° 12:51:12 10° 225° (SW) 2,300 5.1 -14.6°
Sets 12:53:36 0° 218° (SW) 3,223 5.9 -14.2°
